RH
93 92 92 92 93 94 94 95 96 97 96 96 95 95 94 94 94 95 96 86 82 82 80 77 78 82 54 53 55 31 60 51 36 35 31 31 34 38 41 36 31 34 29 25 24 25 24
94 94 94 96 95 93 91 90 90 92 97 97 97 96 96 95 95 96 92 86 84 81 79 75 78 81 54 78 41 33 28 25 32 34 28 28 33 32 36 38 39 34 31 30 26 26 25
95 96 96 95 94 92 89 91 92 92 93 94 98 97 97 96 96 93 90 87 84 82 78 75 76 70 62 64 36 35 32 29 28 29 29 26 30 36 37 37 32 32 33 30 27 29 25
96 96 96 95 92 92 94 95 97 97 98 98 98 99 98 95 94 92 88 84 84 80 79 78 77 69 60 35 39 41 38 31 28 28 26 24 27 32 37 32 31 34 39 40 28 25 26
93 95 95 95 94 94 95 97 97 96 97 97 96 96 94 94 92 88 84 83 82 77 79 84 87 67 67 46 45 38 35 34 28 27 29 21 32 36 40 42 45 44 47 43 33 25 27
89 92 94 94 94 94 94 96 97 97 96 96 96 95 93 92 90 88 85 80 77 77 73 71 59 74 58 52 34 29 37 29 29 30 31 35 44 51 50 44 41 42 47 59 39 26 31
86 89 94 92 92 92 92 93 95 96 94 94 95 93 92 92 90 88 87 89 80 87 79 70 66 60 44 36 33 28 26 25 28 32 40 44 52 55 36 39 40 38 38 41 41 29 30
89 90 87 90 93 93 90 90 96 94 93 94 96 95 93 92 89 83 85 89 82 81 89 64 59 55 47 44 51 42 28 28 33 36 41 49 55 39 36 37 41 42 42 42 37 30 34
90 89 88 88 86 86 89 93 95 96 92 93 96 95 94 94 91 88 83 82 72 69 81 68 63 60 56 49 57 50 35 30 33 38 43 41 38 37 38 38 46 46 44 41 36 31 33
90 90 86 83 84 87 88 88 89 93 94 93 96 96 95 92 86 88 83 62 64 64 89 66 63 57 55 50 57 42 35 30 39 37 44 43 33 35 46 43 39 44 37 34 35 42 42
89 87 84 83 84 86 86 88 88 89 96 96 97 96 94 81 90 86 68 61 59 64 83 47 56 40 49 49 44 43 37 42 44 43 39 45 42 43 38 34 39 44 36 38 39 48 57
82 80 78 78 78 80 82 86 89 90 91 95 96 95 93 89 91 78 73 66 72 84 67 53 48 52 61 54 48 43 53 46 41 45 45 45 36 39 39 36 35 34 44 45 51 52 74
77 76 75 75 76 77 78 80 81 81 80 93 97 95 93 83 86 84 80 82 93 93 42 49 48 53 56 55 53 38 54 62 54 65 66 50 46 44 38 47 42 40 49 78 77 78 63
73 73 74 74 75 75 77 79 79 78 74 82 90 97 91 94 90 86 90 93 98 62 66 46 41 36 51 45 48 51 51 66 57 52 59 66 68 47 41 40 44 41 41 63 58 67 54
72 72 71 72 75 76 76 77 77 77 76 84 92 100 99 100 96 93 95 99 82 67 50 53 44 49 46 42 47 46 50 51 50 48 59 64 62 37 38 35 36 51 53 44 60 60 85
68 66 66 66 70 73 76 77 76 76 78 78 97 98 98 97 98 97 100 90 84 70 63 52 60 61 62 61 55 59 56 61 75 56 41 53 58 44 36 35 37 40 40 67 90 97 92
65 63 64 66 68 69 70 73 76 77 78 72 93 90 86 92 98 99 99 96 92 71 64 63 68 64 67 74 70 60 58 85 86 78 66 73 52 50 43 45 41 42 51 49 62 86 93
69 66 64 66 66 68 67 68 72 78 74 79 90 87 90 98 100 100 99 96 78 73 64 65 65 71 73 74 73 69 66 94 86 85 92 85 95 97 68 38 32 33 43 50 75 89 98
70 66 66 66 67 67 68 67 70 77 73 95 98 98 85 97 98 99 94 85 83 83 70 78 78 80 70 80 79 72 81 89 86 93 90 87 97 92 62 56 64 64 67 68 68 78 95
70 66 66 65 66 66 67 67 69 78 75 94 96 98 94 97 96 89 90 86 89 84 83 70 79 89 88 89 78 78 81 82 88 89 85 84 92 96 95 82 99 97 83 77 93 97 87
72 70 66 65 65 67 68 67 67 72 74 92 98 93 89 99 96 86 85 84 79 69 77 76 83 90 90 94 90 85 76 79 87 83 86 91 98 97 98 97 97 93 88 83 86 81 98
74 74 72 67 66 64 64 67 67 74 73 96 96 96 97 92 89 89 78 88 75 73 73 69 87 76 79 92 82 82 79 90 99 91 88 88 98 100 98 93 98 96 81 74 79 79 98
73 72 74 69 66 63 63 66 69 73 75 98 99 95 88 87 97 88 87 82 80 74 68 65 67 83 87 82 79 82 80 82 76 82 90 100 98 98 86 95 99 98 81 71 74 81 93
74 72 71 69 66 64 63 66 69 70 77 96 96 96 96 91 98 92 76 77 78 73 79 74 67 77 71 52 58 70 71 87 82 79 74 96 98 99 94 96 96 59 63 63 69 66 83
77 71 68 70 66 65 65 68 70 69 78 94 98 94 96 99 75 69 80 78 67 64 66 65 60 54 60 79 95 94 96 94 82 78 77 83 90 97 96 95 80 58 45 82 87 72 65
76 72 70 72 74 72 72 73 69 71 75 94 96 95 96 98 93 60 67 69 86 92 87 74 66 69 77 96 97 93 90 89 90 89 74 86 88 97 97 97 92 66 60 62 62 76 55
78 76 74 76 74 74 74 74 73 67 67 93 92 90 98 100 88 74 90 86 79 86 96 88 77 82 80 98 97 98 72 77 89 90 95 98 98 96 96 96 84 62 52 58 77 69 56
79 77 75 77 75 75 75 75 74 68 65 90 92 94 91 97 83 78 70 81 86 88 92 79 84 83 96 99 96 94 96 78 82 84 90 84 93 96 92 97 92 54 63 71 70 64 65
83 87 82 77 78 77 77 75 70 67 66 72 92 92 93 98 86 77 70 66 75 74 84 88 84 93 97 97 97 93 97 99 90 92 86 93 87 90 80 80 70 64 66 63 67 67 68
Wind_Speed
22 20 18 16 14 14 14 14 13 13 13 12 12 12 12 11 10 10 8 7 4 1 3 5 9 13 6 4 10 4 7 6 5 5 4 3 4 2 1 3 5 3 4 4 8 7 6
22 20 17 14 15 12 11 9 8 11 13 13 12 12 11 11 10 10 8 8 5 3 2 3 5 9 1 4 3 3 6 7 2 3 4 2 0 3 3 3 1 3 5 7 6 5 4
20 19 19 19 17 14 9 6 6 7 10 12 12 12 14 13 11 11 10 8 5 3 4 3 2 2 2 17 3 6 4 3 2 1 3 2 1 1 2 4 3 3 5 6 5 2 4
6 13 22 19 16 13 9 8 4 8 9 9 9 8 9 10 11 9 7 3 1 3 5 3 1 1 8 6 2 9 4 5 7 6 5 7 4 3 3 3 6 3 1 3 4 6 4
8 8 10 9 11 11 11 11 12 11 15 12 11 10 9 8 9 8 5 2 1 3 5 3 1 3 10 4 3 7 7 4 2 4 4 1 1 2 1 2 4 2 4 4 7 8 3
13 14 15 12 10 9 11 14 14 12 10 15 15 14 9 8 7 7 4 2 3 4 2 2 3 2 5 5 2 2 4 4 2 4 4 4 4 2 1 4 9 5 5 3 5 4 3
16 16 15 15 15 14 11 15 13 10 8 8 10 12 10 12 8 6 2 1 2 1 4 10 5 5 1 2 2 4 4 5 4 4 5 3 4 9 19 10 2 0 4 5 3 6 4
15 15 15 16 14 16 15 15 13 12 10 8 8 11 13 11 6 6 3 1 2 1 8 14 14 11 7 4 3 4 2 6 5 8 7 1 10 14 3 6 8 8 10 9 6 8 4
10 11 11 10 10 8 14 10 11 12 12 10 9 11 10 11 8 4 2 2 2 1 6 7 9 9 7 10 10 9 8 3 5 5 11 12 7 7 10 7 5 8 12 7 11 6 7
12 12 13 14 12 11 10 10 9 3 12 11 11 11 12 10 5 3 2 4 2 0 4 7 6 7 4 6 8 11 12 8 5 12 6 10 8 6 4 6 11 13 9 11 9 2 8
17 16 17 16 14 12 10 9 8 7 4 13 14 13 15 6 5 3 1 3 4 3 3 1 2 0 4 8 3 3 2 1 13 7 7 10 7 8 15 17 11 6 7 8 7 5 4
17 18 16 15 14 12 10 9 9 8 5 10 15 16 15 3 2 3 2 3 3 6 10 3 4 3 3 2 4 4 2 3 2 4 4 5 3 6 9 5 11 3 0 3 3 5 7
16 16 15 13 12 11 10 8 7 7 7 3 14 17 13 5 4 4 4 3 4 5 4 3 2 3 2 3 3 2 5 6 4 5 8 6 18 4 2 2 3 4 3 3 2 3 11
16 15 14 13 12 11 10 9 6 5 6 6 12 16 9 1 1 5 3 4 5 2 4 3 4 4 3 4 3 2 4 3 6 2 2 4 7 9 8 20 10 12 10 6 6 5 6
18 16 14 13 11 10 9 8 7 6 5 7 10 3 4 2 0 3 4 3 6 4 4 4 3 2 3 6 3 2 5 5 6 13 8 3 6 1 2 11 14 5 11 18 10 8 5
18 15 14 12 11 10 9 8 7 6 6 6 4 3 3 6 3 4 2 5 3 2 5 5 3 4 4 7 6 7 2 6 5 5 8 3 12 4 4 2 6 12 2 4 1 6 9
16 15 14 13 11 9 8 8 7 7 7 6 5 5 3 7 3 3 3 3 1 2 2 4 3 4 3 3 3 5 4 5 7 6 6 5 3 9 4 5 7 2 5 6 3 6 5
14 14 13 13 11 10 8 7 7 8 8 9 4 4 4 3 3 1 2 4 1 3 1 2 1 2 1 2 2 3 3 2 5 2 3 4 1 6 7 15 12 14 5 1 7 9 5
14 14 13 12 12 10 9 7 6 6 6 4 4 2 3 2 3 2 0 1 1 2 2 2 3 3 1 2 3 4 2 0 2 3 2 2 3 7 16 6 8 6 8 12 11 2 9
15 14 13 12 11 10 10 8 7 7 7 6 4 4 3 3 1 4 3 4 3 3 1 2 3 1 0 2 3 5 3 4 2 3 6 3 3 6 9 10 1 6 14 10 3 6 13
16 15 13 12 11 10 9 9 8 7 7 6 3 3 1 4 3 4 2 1 2 3 2 4 3 6 4 4 5 9 6 3 3 3 4 1 5 7 10 10 7 9 12 12 11 11 7
16 14 13 12 11 9 9 8 9 9 8 5 4 4 1 2 3 8 7 4 6 3 2 3 7 2 4 10 8 4 8 2 2 1 5 4 5 6 6 12 13 8 15 11 16 16 10
18 16 14 14 12 10 9 10 10 11 5 3 1 2 4 2 4 8 6 4 5 4 3 5 4 3 6 5 4 5 9 16 15 11 8 6 3 4 8 4 0 8 14 13 11 6 5
15 17 16 15 13 11 10 10 10 11 7 4 2 4 4 3 3 5 2 5 7 6 4 4 3 1 2 9 14 7 9 15 16 19 15 9 6 3 4 2 7 8 4 6 14 9 14
14 16 16 16 14 12 11 10 10 10 11 4 3 4 4 2 4 4 6 4 2 5 6 8 9 12 6 5 3 6 4 4 13 20 19 16 8 5 4 5 7 10 6 7 7 8 15
15 15 16 15 14 12 11 10 10 10 13 4 2 4 4 4 6 5 4 8 5 3 4 5 7 5 5 3 3 5 4 4 3 5 16 17 14 9 4 4 7 5 4 2 1 6 3
15 15 15 16 15 14 12 11 11 12 12 4 3 5 4 2 6 6 5 5 5 3 3 3 4 3 7 4 5 4 9 1 7 6 3 8 10 17 7 5 7 7 8 1 2 7 3
16 15 13 17 16 15 15 13 12 13 13 5 1 5 7 3 7 5 6 7 1 4 5 3 5 4 2 4 3 5 6 8 9 6 6 12 9 5 7 4 11 8 2 8 7 3 3
15 18 21 18 17 16 15 14 14 15 14 11 5 3 3 4 5 3 9 13 11 13 4 5 6 3 3 1 4 5 6 3 6 6 4 4 6 7 9 9 5 4 6 4 3 4 6
Wind_Direction
204 209 207 212 213 209 211 215 218 219 216 216 227 229 229 231 231 238 225 200 195 226 325 337 345 338 360 5 255 310 351 335 335 355 22 25 35 37 1 316 323 213 269 290 283 282 250
201 200 198 168 156 151 164 171 193 213 226 213 219 224 229 233 230 231 199 189 196 218 249 314 358 334 43 286 267 59 28 353 357 33 350 350 28 278 262 249 211 288 279 282 295 311 245
189 175 157 151 146 142 147 171 194 222 217 222 217 217 224 216 184 169 172 180 190 237 279 312 8 82 160 244 247 320 333 212 207 38 316 272 267 45 301 307 322 279 305 309 245 242 245
69 153 147 144 143 140 151 160 177 148 159 167 172 164 160 150 140 144 146 148 228 298 288 248 147 119 239 245 277 297 168 264 217 209 195 262 251 223 195 295 352 318 274 260 265 170 256
161 183 150 144 151 155 166 167 154 150 139 130 125 122 122 123 128 130 128 137 207 268 265 229 199 202 263 308 246 254 159 221 196 181 186 275 189 208 70 111 344 312 245 223 302 205 177
183 206 168 166 177 183 194 177 162 154 145 148 151 137 116 94 87 79 61 31 21 335 210 190 283 347 259 241 192 202 176 186 147 107 117 117 56 112 33 140 232 212 228 254 224 255 217
191 205 167 186 181 186 197 200 170 153 173 161 149 137 132 122 116 93 109 61 87 197 249 207 196 235 235 262 338 234 167 137 111 92 168 173 144 203 219 212 244 177 211 234 247 262 266
182 183 177 184 182 189 195 205 181 169 176 180 170 145 137 120 110 81 81 116 333 314 291 235 250 264 279 89 330 274 122 171 146 196 142 121 227 223 192 207 212 233 255 257 274 259 257
150 145 144 155 146 149 189 193 196 189 182 173 170 152 141 130 113 67 80 220 157 14 270 271 217 230 215 170 219 226 171 171 173 176 191 199 211 211 198 214 202 221 224 241 245 323 271
145 142 144 139 131 126 133 137 135 129 192 174 171 156 138 124 89 146 210 201 158 97 293 262 232 274 153 130 272 202 202 162 194 213 162 245 212 200 159 212 191 249 204 232 247 182 260
132 129 126 125 126 123 122 127 121 123 150 183 168 158 153 136 128 147 212 159 179 88 297 70 172 355 158 182 339 1 124 139 197 170 144 237 177 196 227 228 186 231 176 201 214 213 290
135 131 132 132 129 125 115 105 103 102 111 187 169 164 151 64 30 234 107 146 80 58 247 29 129 140 141 276 307 95 47 38 175 148 278 257 284 160 195 228 199 180 82 239 89 135 255
139 135 134 132 134 133 131 119 103 93 84 128 175 166 159 143 206 152 119 72 64 190 352 25 350 169 212 203 233 158 149 188 173 143 244 285 253 265 220 251 164 138 120 293 285 170 242
143 140 139 143 141 133 129 126 114 84 70 85 181 169 163 136 179 121 73 69 189 244 272 331 324 352 193 171 246 212 116 184 240 76 2 213 311 183 198 212 198 212 173 198 246 213 258
147 148 149 145 143 142 134 124 109 90 65 87 84 147 118 132 96 61 111 186 206 199 324 357 333 10 342 351 327 120 193 198 204 190 195 230 258 312 147 238 196 226 206 217 253 263 307
148 154 156 155 150 142 140 138 115 90 83 69 86 88 49 326 105 68 171 220 189 360 352 343 74 38 12 341 28 4 235 9 15 47 241 289 293 222 336 303 244 218 196 97 140 224 235
152 159 158 153 150 152 155 135 127 101 94 92 56 71 276 329 98 89 207 220 315 289 193 23 17 359 55 14 15 344 308 41 347 355 14 359 221 270 30 234 267 294 249 243 168 206 258
157 160 158 155 154 154 147 145 130 121 110 54 88 68 304 316 140 138 166 175 291 312 357 335 23 84 322 352 336 271 269 26 343 329 52 13 97 281 270 274 255 246 244 165 232 251 239
159 160 158 158 155 153 146 138 117 121 82 113 84 101 328 356 182 183 125 272 208 221 281 81 355 47 269 238 312 244 273 119 352 65 98 336 31 322 322 348 7 11 11 14 340 122 248
160 160 161 161 157 158 147 137 132 117 97 82 90 85 348 39 58 119 92 270 218 212 225 270 237 135 336 294 240 271 253 233 168 105 132 143 159 221 269 281 285 310 324 332 46 277 276
164 165 165 166 159 155 154 147 145 139 111 88 48 233 214 177 239 151 174 340 100 186 230 185 290 201 171 246 219 237 268 271 219 201 135 194 221 213 230 235 238 248 255 283 286 265 263
170 170 167 167 161 163 161 163 157 143 112 78 126 126 78 143 85 168 202 238 188 189 197 274 236 93 231 243 248 304 332 304 309 283 171 181 254 195 263 225 228 253 250 253 254 265 237
178 176 176 172 174 176 179 176 172 163 99 102 253 39 102 293 137 162 212 200 188 168 262 236 257 348 276 277 319 291 287 281 264 272 248 198 216 203 252 178 164 271 244 226 233 210 218
176 180 183 182 182 185 190 188 182 182 118 120 170 103 89 238 172 200 183 175 213 231 251 301 37 152 254 335 319 279 273 250 248 247 234 220 204 208 265 177 237 241 205 201 224 235 217
178 185 187 185 188 191 196 189 187 197 159 104 147 113 123 213 228 227 234 217 261 254 265 263 263 253 282 290 301 315 294 227 234 236 229 212 207 230 229 216 299 297 253 182 195 262 231
184 190 192 190 189 193 196 193 195 202 179 116 163 134 115 114 242 202 195 216 221 212 324 247 257 222 156 177 121 214 235 297 265 259 214 209 206 215 165 206 221 233 283 177 213 286 221
190 199 199 192 189 193 197 202 206 209 208 148 181 144 103 204 222 154 187 183 164 158 205 292 285 272 144 186 224 206 246 262 270 237 202 204 203 214 198 210 275 236 241 106 131 245 209
189 197 216 199 196 196 200 204 212 220 223 158 192 172 194 226 244 213 215 214 144 162 185 238 16 302 13 215 212 221 240 223 229 230 211 198 176 204 208 213 256 206 130 179 214 306 316
193 201 211 214 204 205 207 207 216 226 228 204 220 170 145 226 255 230 234 231 217 222 194 200 200 208 201 350 13 347 309 250 208 235 209 228 202 181 183 206 226 242 203 201 143 237 275